Flagstaff, AZ

3:56 AM MST on May 28, 2018 (GMT -0700)
Flagstaff Pulliam

Weather History for KFLG - March, 2012

Change the Weather History Date:

Wednesday, March 28, 2012

  Actual Average Record
Temperature  
Mean Temperature 43 °F 39 °F  
Max Temperature 61 °F 53 °F 70 °F (2015)
Min Temperature 25 °F 25 °F -7 °F (1975)
Degree Days  
Heating Degree Days 22 26  
Month to date heating degree days 791 790  
Since 1 July heating degree days 5481 5629  
Cooling Degree Days 0 0  
Month to date cooling degree days 0 0  
Year to date cooling degree days 0 0  
Moisture  
Dew Point 18 °F    
Average Humidity 46    
Maximum Humidity 75    
Minimum Humidity 16    
Precipitation  
Precipitation 0.00 in 0.05 in 1.13 in (1998)
Month to date precipitation 1.81 1.96  
Year to date precipitation 3.22 6.17  
Snow  
Snow 0.00 in 0.50 in 11.60 in (1973)
Month to date snowfall 26.4 19.4  
Since 1 July snowfall 92.5 92.6  
Snow Depth 0.00 in    
Sea Level Pressure  
Sea Level Pressure 30.00 in    
Wind  
Wind Speed 7 mph (SW)    
Max Wind Speed 21 mph    
Max Gust Speed 26 mph    
Visibility 10 miles    
Events      
T = Trace of Precipitation, MM = Missing Value Source: NWS Daily Summary

Daily Weather History Graph

Daily Weather History Graph

Search for Another Location

Airport or City:

Astronomy

Mar. 28, 2012 Rise Set
Actual Time 6:18 AM MST 6:45 PM MST
Civil Twilight 5:52 AM MST 7:10 PM MST
Nautical Twilight 5:23 AM MST 7:40 PM MST
Astronomical Twilight 4:52 AM MST 8:11 PM MST
Moon 9:49 AM MST No Moon Set
Length of Visible Light 13h 17m
Length of Day
12h 27m
Waxing Crescent, 31% of the Moon is Illuminated
Mar 28
Waxing Crescent
Mar 30
First Quarter
Apr 6
Full
Apr 13
Last Quarter
Apr 21
New

Hourly Weather History & Observations

Time (MST) Temp. Windchill Dew Point Humidity Pressure Visibility Wind Dir Wind Speed Gust Speed Precip Events Conditions
12:57 AM 30.9 °F 26.2 °F 21.0 °F 67% 30.00 in 10.0 mi WNW 4.6 mph - N/A   Clear
1:57 AM 30.0 °F - 19.9 °F 66% 29.99 in 10.0 mi Calm Calm - N/A   Clear
2:57 AM 28.0 °F - 19.9 °F 72% 30.00 in 10.0 mi Calm Calm - N/A   Clear
3:57 AM 28.0 °F 22.8 °F 19.9 °F 72% 29.99 in 10.0 mi NW 4.6 mph - N/A   Clear
4:57 AM 26.1 °F - 19.0 °F 75% 30.01 in 10.0 mi Calm Calm - N/A   Clear
5:57 AM 26.1 °F - 19.0 °F 75% 30.03 in 10.0 mi Calm Calm - N/A   Clear
6:57 AM 28.0 °F - 19.9 °F 72% 30.05 in 10.0 mi Calm Calm - N/A   Clear
7:57 AM 44.1 °F 40.1 °F 18.0 °F 35% 30.03 in 10.0 mi SW 6.9 mph - N/A   Clear
8:57 AM 48.0 °F - 18.0 °F 30% 30.04 in 10.0 mi SW 9.2 mph - N/A   Clear
9:57 AM 51.1 °F - 16.0 °F 25% 30.04 in 10.0 mi SSW 10.4 mph - N/A   Clear
10:57 AM 54.0 °F - 17.1 °F 23% 30.04 in 10.0 mi SSW 10.4 mph - N/A   Clear
11:57 AM 57.0 °F - 17.1 °F 21% 30.00 in 10.0 mi SSW 19.6 mph - N/A   Clear
12:57 PM 59.0 °F - 14.0 °F 17% 29.99 in 10.0 mi WSW 12.7 mph 24.2 mph N/A   Clear
1:57 PM 60.1 °F - 16.0 °F 18% 29.97 in 10.0 mi SW 15.0 mph 23.0 mph N/A   Clear
2:57 PM 60.1 °F - 15.1 °F 17% 29.97 in 10.0 mi WSW 13.8 mph 23.0 mph N/A   Clear
3:57 PM 60.1 °F - 18.0 °F 20% 29.95 in 10.0 mi SSW 15.0 mph 24.2 mph N/A   Clear
4:57 PM 59.0 °F - 18.0 °F 20% 29.95 in 10.0 mi WSW 10.4 mph 24.2 mph N/A   Clear
5:57 PM 55.0 °F - 19.0 °F 24% 29.97 in 10.0 mi SSW 15.0 mph - N/A   Clear
6:57 PM 51.1 °F - 19.0 °F 28% 29.99 in 10.0 mi SW 9.2 mph - N/A   Clear
7:57 PM 45.0 °F 41.2 °F 21.0 °F 39% 29.96 in 10.0 mi WSW 6.9 mph - N/A   Clear
8:57 PM 42.1 °F 40.2 °F 19.0 °F 40% 29.98 in 10.0 mi WSW 3.5 mph - N/A   Clear
9:57 PM 37.0 °F - 19.9 °F 50% 29.98 in 10.0 mi Calm Calm - N/A   Clear
10:57 PM 33.1 °F - 19.9 °F 59% 29.98 in 10.0 mi Calm Calm - N/A   Clear
11:57 PM 30.0 °F - 19.0 °F 64% 29.97 in 10.0 mi Calm Calm - N/A   Clear